When you browse on this site, cookies collect data to enhance your experience and personalize the content and advertising you see.
Visit our Privacy Policy to learn more. By continuing to use the site, you agree to this use of cookies and data.
  • Em Portugal
  • Lista de países
  • Para 7 dias
  • Temperatura da água
  • Mapas de satélite
  • Mapa do tempo
  • Widgets de tempo
  • user-avatar
    Iniciar Sessão

    Previsão horária em Wexford

    Hoje, 24 Março, Domingo

    Tempo Temperatura Precipitação Vento Pressão Humidade
    00:00 +5°C° 0 mm 2 m/s 775 mmHg 76%
    01:00 +4°C° 0 mm 2 m/s 775 mmHg 80%
    02:00 +3°C° 0 mm 3 m/s 774 mmHg 84%
    03:00 +1°C° 0 mm 4 m/s 774 mmHg 88%
    04:00 +1°C° 0 mm 4 m/s 774 mmHg 88%
    05:00 0°C° 0 mm 4 m/s 774 mmHg 88%
    06:00 0°C° 0 mm 4 m/s 774 mmHg 88%
    07:00 +1°C° 0 mm 4 m/s 775 mmHg 84%
    08:00 +4°C° 0 mm 4 m/s 775 mmHg 80%
    09:00 +5°C° 0 mm 4 m/s 775 mmHg 75%
    10:00 +6°C° 0 mm 4 m/s 775 mmHg 72%
    11:00 +8°C° 0 mm 5 m/s 775 mmHg 69%
    12:00 +9°C° 0 mm 5 m/s 775 mmHg 66%
    13:00 +9°C° 0 mm 5 m/s 775 mmHg 67%
    14:00 +9°C° 0 mm 5 m/s 775 mmHg 67%
    15:00 +9°C° 0 mm 5 m/s 774 mmHg 68%
    16:00 +8°C° 0 mm 5 m/s 774 mmHg 72%
    17:00 +8°C° 0 mm 5 m/s 774 mmHg 75%
    18:00 +8°C° 0 mm 4 m/s 774 mmHg 79%
    19:00 +7°C° 0 mm 5 m/s 774 mmHg 82%
    20:00 +5°C° 0 mm 5 m/s 775 mmHg 85%
    21:00 +3°C° 0 mm 5 m/s 775 mmHg 88%
    22:00 +3°C° 0 mm 5 m/s 775 mmHg 89%
    23:00 +2°C° 0 mm 5 m/s 775 mmHg 90%

    Amanhã, 25 Março, Segunda-feira

    Tempo Temperatura Precipitação Vento Pressão Humidade
    00:00 +2°C° 0 mm 5 m/s 776 mmHg 91%
    01:00 +2°C° 0 mm 5 m/s 776 mmHg 91%
    02:00 +2°C° 0 mm 5 m/s 776 mmHg 91%
    03:00 +1°C° 0 mm 5 m/s 776 mmHg 91%
    04:00 +1°C° 0 mm 5 m/s 776 mmHg 91%
    05:00 +1°C° 0 mm 5 m/s 776 mmHg 92%
    06:00 +1°C° 0 mm 5 m/s 776 mmHg 92%
    07:00 +2°C° 0 mm 5 m/s 776 mmHg 88%
    08:00 +4°C° 0 mm 4 m/s 776 mmHg 84%
    09:00 +6°C° 0 mm 4 m/s 777 mmHg 81%
    10:00 +8°C° 0 mm 3 m/s 777 mmHg 76%
    11:00 +9°C° 0 mm 2 m/s 777 mmHg 72%
    12:00 +10°C° 0 mm 2 m/s 777 mmHg 68%
    13:00 +11°C° 0 mm 1 m/s 777 mmHg 68%
    14:00 +12°C° 0 mm 1 m/s 777 mmHg 68%
    15:00 +12°C° 0 mm 1 m/s 777 mmHg 68%
    16:00 +11°C° 0 mm 1 m/s 777 mmHg 71%
    17:00 +10°C° 0 mm 2 m/s 777 mmHg 75%
    18:00 +9°C° 0 mm 2 m/s 777 mmHg 79%
    19:00 +9°C° 0 mm 2 m/s 777 mmHg 81%
    20:00 +8°C° 0 mm 2 m/s 777 mmHg 83%
    21:00 +7°C° 0 mm 2 m/s 778 mmHg 86%
    22:00 +7°C° 0 mm 2 m/s 778 mmHg 86%
    23:00 +7°C° 0 mm 2 m/s 778 mmHg 87%

    Depois de amanhã, 26 Março, Terça-feira

    Tempo Temperatura Precipitação Vento Pressão Humidade
    00:00 +6°C° 0 mm 2 m/s 778 mmHg 88%
    01:00 +6°C° 0 mm 2 m/s 778 mmHg 88%
    02:00 +4°C° 0 mm 3 m/s 778 mmHg 89%
    03:00 +4°C° 0 mm 3 m/s 777 mmHg 89%
    04:00 +4°C° 0 mm 3 m/s 777 mmHg 89%
    05:00 +4°C° 0 mm 3 m/s 777 mmHg 89%
    06:00 +3°C° 0 mm 3 m/s 777 mmHg 90%
    07:00 +5°C° 0 mm 3 m/s 777 mmHg 86%
    08:00 +7°C° 0 mm 2 m/s 777 mmHg 83%
    09:00 +8°C° 0 mm 2 m/s 777 mmHg 79%
    10:00 +9°C° 0 mm 2 m/s 777 mmHg 75%
    11:00 +10°C° 0 mm 2 m/s 777 mmHg 71%
    12:00 +12°C° 0 mm 3 m/s 777 mmHg 67%
    13:00 +12°C° 0 mm 3 m/s 777 mmHg 67%
    14:00 +12°C° 0 mm 4 m/s 777 mmHg 67%
    15:00 +12°C° 0 mm 4 m/s 776 mmHg 66%
    16:00 +12°C° 0 mm 4 m/s 776 mmHg 71%
    17:00 +11°C° 0 mm 4 m/s 776 mmHg 76%
    18:00 +10°C° 0 mm 4 m/s 776 mmHg 81%
    19:00 +8°C° 0 mm 4 m/s 776 mmHg 84%
    20:00 +7°C° 0 mm 4 m/s 777 mmHg 87%
    21:00 +5°C° 0 mm 4 m/s 777 mmHg 90%
    22:00 +5°C° 0 mm 3 m/s 777 mmHg 90%
    23:00 +5°C° 0 mm 3 m/s 777 mmHg 90%

    27 Março, Quarta-feira

    Tempo Temperatura Precipitação Vento Pressão Humidade
    00:00 +6°C° 0 mm 2 m/s 777 mmHg 90%
    01:00 +5°C° 0 mm 2 m/s 777 mmHg 91%
    02:00 +5°C° 0 mm 2 m/s 777 mmHg 91%
    03:00 +5°C° 0 mm 2 m/s 777 mmHg 91%
    04:00 +5°C° 0 mm 2 m/s 777 mmHg 91%
    05:00 +5°C° 0 mm 2 m/s 777 mmHg 90%
    06:00 +4°C° 0 mm 2 m/s 777 mmHg 90%
    07:00 +7°C° 0 mm 1 m/s 777 mmHg 86%
    08:00 +8°C° 0 mm 1 m/s 777 mmHg 82%
    09:00 +10°C° 0 mm 1 m/s 777 mmHg 78%
    10:00 +11°C° 0 mm 1 m/s 777 mmHg 75%
    11:00 +12°C° 0 mm 1 m/s 777 mmHg 72%
    12:00 +13°C° 0 mm 1 m/s 777 mmHg 69%
    13:00 +14°C° 0 mm 2 m/s 777 mmHg 68%
    14:00 +14°C° 0 mm 2 m/s 777 mmHg 67%
    15:00 +15°C° 0 mm 2 m/s 777 mmHg 66%
    16:00 +13°C° 0 mm 3 m/s 777 mmHg 71%
    17:00 +12°C° 0 mm 3 m/s 777 mmHg 75%
    18:00 +11°C° 0 mm 3 m/s 777 mmHg 80%
    19:00 +10°C° 0 mm 3 m/s 777 mmHg 82%
    20:00 +9°C° 0 mm 3 m/s 778 mmHg 85%
    21:00 +7°C° 0 mm 3 m/s 778 mmHg 87%
    22:00 +7°C° 0 mm 3 m/s 778 mmHg 88%
    23:00 +7°C° 0 mm 2 m/s 778 mmHg 89%

    28 Março, Quinta-feira

    Tempo Temperatura Precipitação Vento Pressão Humidade
    00:00 +6°C° 0 mm 2 m/s 778 mmHg 89%
    01:00 +6°C° 0 mm 2 m/s 778 mmHg 89%
    02:00 +6°C° 0 mm 2 m/s 778 mmHg 89%
    03:00 +5°C° 0 mm 2 m/s 778 mmHg 89%
    04:00 +5°C° 0 mm 2 m/s 778 mmHg 89%
    05:00 +5°C° 0 mm 2 m/s 778 mmHg 88%
    06:00 +4°C° 0 mm 2 m/s 777 mmHg 87%
    07:00 +7°C° 0 mm 1 m/s 778 mmHg 83%
    08:00 +9°C° 0 mm 1 m/s 778 mmHg 79%
    09:00 +10°C° 0 mm 1 m/s 778 mmHg 75%
    10:00 +11°C° 0 mm 1 m/s 777 mmHg 74%
    11:00 +12°C° 0 mm 2 m/s 777 mmHg 72%
    12:00 +13°C° 0 mm 2 m/s 777 mmHg 71%
    13:00 +12°C° 0 mm 3 m/s 776 mmHg 70%
    14:00 +12°C° 0 mm 3 m/s 776 mmHg 70%
    15:00 +12°C° 0 mm 4 m/s 775 mmHg 69%
    16:00 +11°C° 0 mm 4 m/s 775 mmHg 72%
    17:00 +11°C° 0 mm 4 m/s 775 mmHg 75%
    18:00 +10°C° 0 mm 3 m/s 774 mmHg 77%
    19:00 +8°C° 0 mm 3 m/s 775 mmHg 79%
    20:00 +7°C° 0 mm 3 m/s 775 mmHg 80%
    21:00 +5°C° 0 mm 3 m/s 775 mmHg 81%
    22:00 +5°C° 0 mm 3 m/s 775 mmHg 82%
    23:00 +5°C° 0 mm 3 m/s 774 mmHg 83%

    29 Março, Sexta-feira

    Tempo Temperatura Precipitação Vento Pressão Humidade
    00:00 +5°C° 0 mm 4 m/s 774 mmHg 84%
    01:00 +4°C° 0 mm 3 m/s 774 mmHg 86%
    02:00 +4°C° 0 mm 3 m/s 774 mmHg 88%
    03:00 +4°C° 0 mm 3 m/s 773 mmHg 90%
    04:00 +4°C° 0 mm 3 m/s 773 mmHg 91%
    05:00 +5°C° 0 mm 3 m/s 773 mmHg 92%
    06:00 +5°C° 0 mm 3 m/s 773 mmHg 93%
    07:00 +7°C° 0 mm 3 m/s 773 mmHg 90%
    08:00 +8°C° 0 mm 4 m/s 773 mmHg 87%
    09:00 +10°C° 0 mm 4 m/s 772 mmHg 84%
    10:00 +10°C° 0 mm 5 m/s 772 mmHg 81%
    11:00 +12°C° 0 mm 5 m/s 772 mmHg 79%
    12:00 +11°C° 0 mm 6 m/s 772 mmHg 76%
    13:00 +11°C° 0 mm 6 m/s 771 mmHg 76%
    14:00 +11°C° 0 mm 6 m/s 770 mmHg 76%
    15:00 +11°C° 0 mm 6 m/s 770 mmHg 76%
    16:00 +10°C° 0 mm 6 m/s 769 mmHg 79%
    17:00 +10°C° 0 mm 5 m/s 769 mmHg 82%
    18:00 +9°C° 0 mm 5 m/s 769 mmHg 86%
    19:00 +8°C° 0 mm 5 m/s 769 mmHg 89%
    20:00 +7°C° 0 mm 5 m/s 769 mmHg 93%
    21:00 +6°C° 0 mm 4 m/s 769 mmHg 96%
    22:00 +6°C° 0 mm 4 m/s 769 mmHg 96%
    23:00 +6°C° 0 mm 4 m/s 768 mmHg 96%
    Mostrar mais